COSMOS 249 DEB, 3695

Orbit data source: Space-Track

COSMOS 249 DEB, 3695 is space debris in LEO originally from a launch on Sun, 20 Oct 1968 UTC launched from the Tyuratam Missile And Space Complex (TTMTR). Debris objects in space refer to the collection of defunct objects orbiting the Earth. Examples of debris include non-operational satellites, rocket bodies, and fragments generated from explosions, collisions, or faulty payload assembly.

Loading next visibility...
Identifier
3695, 1968-091AL
Orbit
LEO
Last TLE update
9 hours ago
Origin
Manufacturer
Unknown
Mission
Spacecraft
Bus & Motor
Unknown
Mass
Unknown
Launch date (UTC)
1968-10-20 (57 years ago)
Launch vehicle
Unknown
Launch site
Tyuratam Missile And Space Complex (TTMTR)
Object type
Payload
Rocket body
Debris
Shape & HBR
Unknown
Radar Cross Section
Small (<0.1 m²)

Expand to show TLE details & history

TLE from 9 hours ago
0 COSMOS 249 DEB
1  3695U 68091AL  25163.31284360  .00000936  00000-0  10352-2 0  9992
2  3695  62.2330 101.4373 0672736 151.5018 212.4555 13.05844720624394
Epoch: 2025-06-12T07:30Z
TLE epoch observation values (Epoch: 2025-06-12T07:30:29.687Z)
Latitude
-0.00004°
Longitude
87.93079°
Altitude
1,682.51 km
Speed
6.827 km/s
True Right ascension
06h 45m 44s
True Declination
0° 00' 00"
Sunlit
Object was in daylight at epoch
Visualization orbit readout
Latitude
-60.35903°
Longitude
-25.94187°
Altitude
1,380.985 km
Speed
7.112 km/s
Apparent Right ascension
17h 53m 35s
Apparent Declination
-70° 24' 06"
Sunlit
Object is in daylight
Visualization observer readout
Local Sidereal Time
02:31:48
Azimuth
203.831° SW
Elevation
-50.204°
Doppler factor
1
Orbital elements
Apogee altitude
1,750.648 km
Perigee altitude
725.882 km
Semi-major axis
7,616.402 km
Eccentricity
0.06727
Inclination
62.233°
RAAN
101.4373°
Arg. of periapsis
151.5018°
True anomaly
Unknown
Mean anomaly
212.4555°
Eccentric anomaly
Unknown
Mean motion
3.26526 °/min
Orbital period
110.25 mins
BSTAR
0.0010352
Loading maneuver chart data...
Loading SW <> Apogee altitude chart data...

COSMOS 249 DEB Visibility forecast

Observer location: undefined°, undefined°

Span
Click to sort rows by Start time (UTC) header in descending order
Start Az.
Max El. time (UTC)
Max El. Az.
Max El.
End time (UTC)
End Az.
14 mins2025-06-12 20:27:20.351Z171.688° S2025-06-12 20:35:20.351Z110.951° ESE28.184°2025-06-12 20:41:20.351Z57.508° ENE
14 mins2025-06-12 22:21:20.351Z229.022° WSW2025-06-12 22:29:20.351Z319.419° NNW42°2025-06-12 22:35:20.351Z28.554° NE
8 mins2025-06-13 00:20:20.351Z293.249° NW2025-06-13 00:24:20.351Z327.839° NNW17.995°2025-06-13 00:28:20.351Z6.792° NNE
4 mins2025-06-13 04:17:20.351Z11.009° NNE2025-06-13 04:18:20.351Z23.03° NE14.515°2025-06-13 04:21:20.351Z59.279° ENE
8 mins2025-06-13 06:10:20.351Z330.443° NNW2025-06-13 06:13:20.351Z11.511° NNE43.061°2025-06-13 06:18:20.351Z138.09° SSE
|